�������l�o���
Date,Time,MP-1(��Sv/h),MP-2(��Sv/h),MP-3(��Sv/h),MP-4(��Sv/h),MP-5(��Sv/h),MP-6(��Sv/h),MP-7(��Sv/h),MP-8(��Sv/h),����,����(m/s),���J
2019/02/07,00:00,0.781,1.156,0.804,1.494,1.067,0.447,0.794,0.752,�쐼,3.0,��
2019/02/07,00:10,0.783,1.158,0.804,1.492,1.068,0.446,0.794,0.751,���k��,1.9,��
2019/02/07,00:20,0.782,1.159,0.802,1.492,1.067,0.448,0.796,0.751,���k��,1.7,��
2019/02/07,00:30,0.780,1.158,0.805,1.491,1.067,0.446,0.794,0.751,���쐼,2.0,��
2019/02/07,00:40,0.780,1.158,0.803,1.491,1.067,0.448,0.792,0.753,��,1.2,��
2019/02/07,00:50,0.783,1.158,0.804,1.489,1.068,0.446,0.795,0.753,�k��,2.2,��
2019/02/07,01:00,0.780,1.158,0.803,1.493,1.069,0.447,0.795,0.751,�k��,1.7,��
2019/02/07,01:10,0.783,1.158,0.803,1.490,1.070,0.447,0.795,0.753,�k��,0.6,��
2019/02/07,01:20,0.782,1.157,0.804,1.490,1.065,0.447,0.796,0.752,�k,1.7,��
2019/02/07,01:30,0.780,1.157,0.805,1.492,1.068,0.446,0.795,0.751,�k��,2.6,��
2019/02/07,01:40,0.781,1.157,0.806,1.491,1.067,0.446,0.794,0.751,�k��,4.5,��
2019/02/07,01:50,0.781,1.158,0.805,1.490,1.065,0.447,0.794,0.753,�k��,3.8,��
2019/02/07,02:00,0.782,1.158,0.804,1.490,1.069,0.447,0.793,0.752,�k��,2.9,��
2019/02/07,02:10,0.779,1.160,0.803,1.490,1.067,0.447,0.794,0.752,���k��,2.9,��
2019/02/07,02:20,0.781,1.157,0.804,1.490,1.065,0.447,0.794,0.751,���k��,3.6,��
2019/02/07,02:30,0.779,1.154,0.804,1.492,1.066,0.446,0.794,0.751,���쐼,3.9,��
2019/02/07,02:40,0.782,1.158,0.806,1.492,1.068,0.446,0.792,0.751,��,4.8,��
2019/02/07,02:50,0.780,1.155,0.804,1.492,1.068,0.449,0.795,0.751,���k��,4.9,��
2019/02/07,03:00,0.781,1.157,0.803,1.490,1.066,0.446,0.795,0.752,���k��,3.1,��
2019/02/07,03:10,0.780,1.158,0.803,1.489,1.065,0.446,0.796,0.752,���k��,1.1,��
2019/02/07,03:20,0.781,1.157,0.804,1.490,1.067,0.447,0.795,0.751,��쐼,1.4,��
2019/02/07,03:30,0.782,1.158,0.804,1.490,1.065,0.448,0.796,0.753,���쐼,3.0,��
2019/02/07,03:40,0.783,1.158,0.803,1.491,1.066,0.447,0.796,0.752,���쐼,2.1,��
2019/02/07,03:50,0.780,1.157,0.804,1.491,1.066,0.447,0.797,0.751,���k��,2.0,��
2019/02/07,04:00,0.780,1.155,0.804,1.493,1.066,0.447,0.797,0.753,��,1.4,��
2019/02/07,04:10,0.783,1.156,0.803,1.492,1.067,0.446,0.795,0.752,���쐼,1.8,��
2019/02/07,04:20,0.782,1.155,0.804,1.487,1.067,0.447,0.795,0.754,���쐼,1.9,��
2019/02/07,04:30,0.781,1.155,0.805,1.490,1.065,0.447,0.794,0.752,�쐼,1.7,��
2019/02/07,04:40,0.782,1.158,0.805,1.491,1.065,0.447,0.794,0.753,���쐼,1.1,��
2019/02/07,04:50,0.781,1.154,0.803,1.489,1.067,0.448,0.797,0.753,���쐼,1.7,��
2019/02/07,05:00,0.781,1.155,0.805,1.491,1.064,0.445,0.796,0.753,�쐼,2.0,��
2019/02/07,05:10,0.781,1.157,0.804,1.491,1.067,0.445,0.796,0.752,���쐼,1.4,��
2019/02/07,05:20,0.781,1.156,0.805,1.490,1.065,0.446,0.796,0.752,�쐼,3.4,��
2019/02/07,05:30,0.783,1.154,0.806,1.489,1.066,0.445,0.795,0.752,�쐼,3.3,��
2019/02/07,05:40,0.783,1.155,0.804,1.489,1.065,0.446,0.794,0.753,���쐼,4.0,��
2019/02/07,05:50,0.784,1.154,0.801,1.491,1.067,0.448,0.794,0.752,�쐼,3.5,��
2019/02/07,06:00,0.781,1.155,0.805,1.490,1.065,0.448,0.797,0.751,�쐼,3.1,��
2019/02/07,06:10,0.781,1.153,0.804,1.491,1.065,0.447,0.796,0.752,�쐼,2.6,��
2019/02/07,06:20,0.783,1.155,0.804,1.490,1.064,0.446,0.795,0.752,�쐼,3.8,��
2019/02/07,06:30,0.781,1.154,0.803,1.488,1.064,0.446,0.796,0.753,�쐼,3.5,��
2019/02/07,06:40,0.781,1.155,0.804,1.491,1.065,0.447,0.795,0.753,�쐼,3.5,��
2019/02/07,06:50,0.782,1.154,0.803,1.492,1.065,0.447,0.795,0.753,���쐼,3.3,��
2019/02/07,07:00,0.781,1.156,0.804,1.491,1.065,0.448,0.796,0.751,��,2.8,��
2019/02/07,07:10,0.784,1.154,0.804,1.492,1.064,0.447,0.794,0.751,��쓌,3.7,��
2019/02/07,07:20,0.781,1.154,0.803,1.492,1.066,0.448,0.795,0.751,��,5.1,��
2019/02/07,07:30,0.782,1.155,0.805,1.489,1.068,0.447,0.795,0.752,��,5.6,��
2019/02/07,07:40,0.784,1.154,0.802,1.490,1.066,0.446,0.797,0.752,��,5.8,��
2019/02/07,07:50,0.782,1.156,0.804,1.494,1.066,0.447,0.796,0.752,��,4.8,��
2019/02/07,08:00,0.782,1.157,0.804,1.491,1.068,0.446,0.795,0.752,��쐼,5.3,��
2019/02/07,08:10,0.781,1.158,0.803,1.489,1.070,0.448,0.796,0.753,��쐼,4.3,��
2019/02/07,08:20,0.782,1.154,0.808,1.491,1.065,0.447,0.796,0.753,��,3.4,��
2019/02/07,08:30,0.785,1.153,0.804,1.495,1.069,0.448,0.796,0.752,��쐼,3.0,��
2019/02/07,08:40,0.785,1.157,0.802,1.488,1.067,0.448,0.797,0.755,��,2.8,��
2019/02/07,08:50,0.784,1.155,0.805,1.489,1.069,0.448,0.795,0.753,��쓌,3.9,��
2019/02/07,09:00,0.785,1.155,0.806,1.488,1.069,0.449,0.798,0.755,��,3.6,��
2019/02/07,09:10,0.787,1.154,0.801,1.491,1.068,0.449,0.799,0.755,��쓌,3.4,��
2019/02/07,09:20,0.785,1.157,0.806,1.490,1.070,0.448,0.799,0.753,��쓌,3.0,��
2019/02/07,09:30,0.784,1.156,0.808,1.487,1.071,0.447,0.795,0.754,��쓌,4.5,��
2019/02/07,09:40,0.788,1.156,0.804,1.486,1.071,0.449,0.797,0.754,��,6.3,��
2019/02/07,09:50,0.786,1.151,0.806,1.485,1.071,0.449,0.797,0.753,��,6.6,��
2019/02/07,10:00,0.784,1.155,0.807,1.488,1.072,0.448,0.796,0.754,��쐼,6.6,��
2019/02/07,10:10,0.786,1.157,0.807,1.487,1.073,0.448,0.796,0.755,��쐼,5.0,��
2019/02/07,10:20,0.788,1.155,0.806,1.492,1.074,0.449,0.797,0.754,��쐼,6.0,��
2019/02/07,10:30,0.785,1.154,0.809,1.489,1.073,0.449,0.799,0.755,��쐼,6.2,��
2019/02/07,10:40,0.787,1.156,0.806,1.486,1.072,0.450,0.796,0.755,��쐼,6.5,��
2019/02/07,10:50,0.785,1.157,0.807,1.489,1.073,0.447,0.796,0.754,��쐼,6.5,��
2019/02/07,11:00,0.785,1.158,0.807,1.486,1.074,0.448,0.798,0.754,��쐼,4.7,��
2019/02/07,11:10,0.786,1.158,0.809,1.489,1.074,0.450,0.798,0.755,��,5.9,��
2019/02/07,11:20,0.786,1.158,0.809,1.490,1.075,0.446,0.796,0.756,��쓌,5.1,��
2019/02/07,11:30,0.785,1.160,0.808,1.489,1.075,0.449,0.798,0.756,��쓌,5.9,��
2019/02/07,11:40,0.787,1.158,0.807,1.489,1.074,0.450,0.801,0.755,��,5.7,��
2019/02/07,11:50,0.789,1.158,0.808,1.491,1.076,0.450,0.801,0.755,��쐼,7.3,��
2019/02/07,12:00,0.786,1.160,0.809,1.490,1.074,0.450,0.799,0.756,��,4.9,��
2019/02/07,12:10,0.785,1.161,0.808,1.487,1.075,0.450,0.799,0.755,��쓌,9.0,��
2019/02/07,12:20,0.786,1.163,0.809,1.492,1.074,0.450,0.799,0.756,��쓌,8.8,��
2019/02/07,12:30,0.786,1.160,0.810,1.494,1.074,0.452,0.799,0.756,��쓌,8.6,��
2019/02/07,12:40,0.787,1.160,0.808,1.489,1.075,0.452,0.798,0.756,��쓌,7.6,��
2019/02/07,12:50,0.787,1.160,0.809,1.490,1.075,0.452,0.799,0.756,��쓌,8.3,��
2019/02/07,13:00,0.788,1.161,0.808,1.491,1.075,0.453,0.800,0.753,��쓌,7.1,��
2019/02/07,13:10,0.787,1.162,0.808,1.487,1.077,0.454,0.800,0.755,��쓌,6.4,��
2019/02/07,13:20,0.787,1.157,0.811,1.491,1.078,0.453,0.802,0.752,��쓌,7.6,��
2019/02/07,13:30,0.790,1.160,0.808,1.495,1.076,0.453,0.798,0.753,��쓌,9.8,��
2019/02/07,13:40,0.788,1.161,0.809,1.495,1.075,0.453,0.799,0.753,��쓌,11.0,��
2019/02/07,13:50,0.787,1.158,0.807,1.498,1.074,0.452,0.800,0.752,��쓌,9.8,��
2019/02/07,14:00,0.787,1.161,0.809,1.494,1.076,0.452,0.801,0.751,��쓌,10.2,��
2019/02/07,14:10,0.789,1.159,0.809,1.497,1.077,0.453,0.799,0.752,��쓌,8.9,��
2019/02/07,14:20,0.788,1.162,0.809,1.497,1.076,0.452,0.800,0.752,��쓌,9.9,��
2019/02/07,14:30,0.789,1.160,0.809,1.496,1.076,0.452,0.797,0.754,��쓌,10.5,��
2019/02/07,14:40,0.789,1.157,0.809,1.500,1.076,0.452,0.798,0.752,��쓌,10.6,��
2019/02/07,14:50,0.785,1.159,0.812,1.496,1.077,0.453,0.799,0.752,��쓌,10.6,��
2019/02/07,15:00,0.787,1.162,0.808,1.498,1.076,0.454,0.800,0.753,��,10.2,��
2019/02/07,15:10,0.790,1.163,0.809,1.498,1.079,0.453,0.800,0.753,��,8.0,��
2019/02/07,15:20,0.788,1.165,0.810,1.498,1.078,0.453,0.800,0.751,��,6.6,��
2019/02/07,15:30,0.787,1.166,0.809,1.498,1.077,0.455,0.799,0.753,��,4.6,��
2019/02/07,15:40,0.789,1.167,0.809,1.496,1.076,0.454,0.800,0.752,��,4.2,��
2019/02/07,15:50,0.789,1.167,0.810,1.498,1.079,0.456,0.799,0.755,��,3.8,��
2019/02/07,16:00,0.789,1.170,0.810,1.499,1.075,0.456,0.801,0.756,��,6.1,��
2019/02/07,16:10,0.790,1.170,0.810,1.498,1.078,0.456,0.801,0.757,��,5.4,��
2019/02/07,16:20,0.788,1.169,0.810,1.499,1.075,0.455,0.801,0.756,���k��,7.7,��
2019/02/07,16:30,0.788,1.171,0.812,1.499,1.075,0.454,0.801,0.756,��,7.4,��
2019/02/07,16:40,0.791,1.171,0.812,1.499,1.076,0.454,0.801,0.756,��,6.7,��
2019/02/07,16:50,0.788,1.171,0.812,1.499,1.077,0.454,0.799,0.756,���쐼,5.6,��
2019/02/07,17:00,0.792,1.170,0.811,1.499,1.077,0.454,0.800,0.755,���쐼,5.3,��
2019/02/07,17:10,0.791,1.171,0.813,1.499,1.077,0.455,0.798,0.755,���쐼,5.9,��
2019/02/07,17:20,0.791,1.170,0.812,1.498,1.079,0.455,0.800,0.754,���쐼,5.5,��
2019/02/07,17:30,0.791,1.172,0.814,1.499,1.080,0.455,0.801,0.756,���쐼,5.0,��
2019/02/07,17:40,0.791,1.173,0.813,1.498,1.082,0.455,0.800,0.756,��,5.4,��
2019/02/07,17:50,0.792,1.171,0.810,1.500,1.079,0.455,0.799,0.755,���쐼,7.8,��
2019/02/07,18:00,0.793,1.170,0.809,1.497,1.078,0.452,0.800,0.755,���쐼,6.4,��
2019/02/07,18:10,0.790,1.169,0.813,1.498,1.080,0.454,0.802,0.755,���쐼,5.7,��
2019/02/07,18:20,0.792,1.167,0.812,1.500,1.082,0.453,0.802,0.756,���쐼,6.0,��
2019/02/07,18:30,0.790,1.172,0.812,1.499,1.079,0.455,0.803,0.754,���쐼,4.6,��
2019/02/07,18:40,0.792,1.172,0.812,1.501,1.081,0.452,0.801,0.757,���쐼,4.4,��
2019/02/07,18:50,0.793,1.168,0.812,1.501,1.080,0.454,0.803,0.755,���쐼,4.6,��
2019/02/07,19:00,0.791,1.170,0.810,1.499,1.080,0.453,0.800,0.754,��,5.1,��
2019/02/07,19:10,0.790,1.172,0.811,1.502,1.081,0.453,0.799,0.756,��,5.5,��
2019/02/07,19:20,0.791,1.172,0.812,1.501,1.080,0.452,0.801,0.754,��,6.9,��
2019/02/07,19:30,0.791,1.168,0.811,1.501,1.079,0.453,0.802,0.753,��,7.6,��
2019/02/07,19:40,0.789,1.169,0.813,1.499,1.078,0.453,0.802,0.753,��,7.7,��
2019/02/07,19:50,0.789,1.171,0.811,1.498,1.081,0.453,0.801,0.755,��,7.8,��
2019/02/07,20:00,0.791,1.168,0.813,1.498,1.080,0.453,0.801,0.756,��,9.3,��
2019/02/07,20:10,0.790,1.168,0.811,1.501,1.078,0.452,0.801,0.754,��,10.2,��
2019/02/07,20:20,0.788,1.169,0.812,1.500,1.079,0.453,0.800,0.757,��,8.2,��
2019/02/07,20:30,0.790,1.166,0.811,1.498,1.079,0.452,0.799,0.755,��,7.4,��
2019/02/07,20:40,0.788,1.168,0.810,1.499,1.079,0.452,0.799,0.755,��,6.0,��
2019/02/07,20:50,0.791,1.169,0.809,1.498,1.078,0.452,0.799,0.755,��,4.5,��
2019/02/07,21:00,0.790,1.167,0.811,1.498,1.079,0.451,0.799,0.756,���k��,6.8,��
2019/02/07,21:10,0.790,1.169,0.812,1.500,1.081,0.452,0.800,0.754,���k��,7.7,��
2019/02/07,21:20,0.790,1.168,0.812,1.498,1.079,0.451,0.798,0.756,���k��,7.3,��
2019/02/07,21:30,0.791,1.168,0.810,1.499,1.078,0.450,0.799,0.754,���k��,7.2,��
2019/02/07,21:40,0.789,1.169,0.811,1.500,1.077,0.451,0.800,0.756,���k��,7.6,��
2019/02/07,21:50,0.789,1.167,0.810,1.501,1.078,0.450,0.797,0.754,�k��,8.5,��
2019/02/07,22:00,0.788,1.170,0.810,1.501,1.081,0.452,0.798,0.754,�k��,7.5,��
2019/02/07,22:10,0.788,1.167,0.807,1.499,1.080,0.452,0.799,0.755,�k�k��,5.6,��
2019/02/07,22:20,0.788,1.169,0.809,1.500,1.078,0.451,0.797,0.754,�k��,5.6,��
2019/02/07,22:30,0.788,1.167,0.810,1.500,1.078,0.452,0.799,0.754,�k��,6.0,��
2019/02/07,22:40,0.787,1.169,0.810,1.500,1.076,0.452,0.801,0.753,�k��,8.3,��
2019/02/07,22:50,0.788,1.168,0.809,1.501,1.078,0.451,0.798,0.756,�k��,7.3,��
2019/02/07,23:00,0.787,1.168,0.808,1.500,1.079,0.451,0.799,0.755,�k��,9.6,��
2019/02/07,23:10,0.787,1.169,0.809,1.500,1.080,0.452,0.798,0.755,�k�k��,8.8,��
2019/02/07,23:20,0.788,1.169,0.807,1.501,1.079,0.451,0.799,0.754,�k�k��,6.3,��
2019/02/07,23:30,0.787,1.170,0.809,1.501,1.080,0.450,0.799,0.754,�k,5.1,��
2019/02/07,23:40,0.789,1.169,0.810,1.498,1.079,0.449,0.798,0.754,�k,7.0,��
2019/02/07,23:50,0.787,1.170,0.810,1.499,1.078,0.450,0.799,0.753,�k,6.1,��
